Other Public Products
Issued by NWS Grand Forks, ND

Home | Current Version | Previous Version | Graphics & Text | Print | Product List | Glossary On
Versions: 1 2 3 4 5 6 7 8 9 10 11 12 13 14 15 16 17 18 19 20 21 22 23 24 25 26 27 28 29 30 31 32 33 34 35 36 37 38 39 40 41 42 43 44 45 46 47 48 49 50
000
FPUS83 KFGF 231031
OPUFGF
PRAIRIE TO PINES WEATHER ROUNDUP
NATIONAL WEATHER SERVICE EASTERN NORTH DAKOTA/GRAND FORKS ND
500 AM CDT SAT AUG 23 2014

 **SATELLITE DATA USED TO AUGMENT SKY COVER AT AUTOMATED STATIONS**
 *****  WEATHER ACROSS EASTERN NORTH DAKOTA  *****

CITY           SKY/WX    TMP DP  RH WIND       PRES   REMARKS
GRAND FORKS    LGT RAIN  62  60  93 N13       30.05F FOG
GRAND FORKS AF LGT RAIN  59  59 100 NE14G21   30.06F FOG
GRAND CITY NWS   N/A     45 N/A N/A N10         N/A
BUXTON           N/A     62  62  99 N12         N/A
DEVILS LAKE    CLOUDY    57  52  82 NE15      30.07F
FARGO          CLOUDY    65  64  97 N9        30.01S FOG
WAHPETON ARPT  CLOUDY    64  63  94 N7        30.01R
$$

 *****  WEATHER ACROSS CENTRAL AND WESTERN NORTH DAKOTA  *****

CITY           SKY/WX    TMP DP  RH WIND       PRES   REMARKS
JAMESTOWN      CLOUDY    61  58  90 NE12G20   30.04F
BISMARCK       CLOUDY    63  59  87 NE16      30.03F
MINOT          CLOUDY    56  54  93 NE8       30.11F
MINOT AFB      MOCLDY    56  56  99 NE12      30.11F
GARRISON         N/A     59  56  89 NE13      30.08S
WILLISTON      CLOUDY    60  54  80 NE12      30.09F
DICKINSON      CLOUDY    61  60  97 E20G28    30.00F FOG
HETTINGER      LGT RAIN  63  61  93 E17G23    29.98F
$$

 *****  OTHER OBSERVATIONS NORTHEAST NORTH DAKOTA  *****

CITY           SKY/WX    TMP DP  RH WIND       PRES   REMARKS
WALHALLA       FAIR      57  57 100 N10       30.12F
LANGDON        CLOUDY    55  55 100 N12       30.12F
CAVALIER       CLOUDY    57  55  94 N13       30.10F
GRAFTON        CLOUDY    57  57 100 N14       30.07F
CANDO          CLOUDY    55  55 100 NE12G21   30.11F
FORT TOTTEN    NOT AVBL
ROLLA          CLOUDY    54  54 100 NE14G24   30.14F
RUGBY          CLOUDY    55  55 100 NE12G21   30.11F
 ***** THE ABOVE OBSERVATIONS ARE NON NWS ARE NOT QUALITY
        CONTROLLED AND MAY MIS-REPORT RAIN FOR SNOW...
$$

 *****  OTHER OBSERVATIONS SOUTHEAST NORTH DAKOTA *****

CITY           SKY/WX    TMP DP  RH WIND       PRES   REMARKS
COOPERSTOWN    NOT AVBL
VALLEY CITY    CLOUDY    59  59 100 NE13      30.04S FOG
OAKES            N/A     63  63 100 NE12      30.03R FOG
GWINNER        CLOUDY    64  64 100 NE9       30.04R
SHEYENNE NWR     N/A     63  63  99 N7        29.95S
BUFFALO          N/A     62  59  92 N10         N/A
WYNDMERE       NOT AVBL
 ***** THE ABOVE OBSERVATIONS ARE NON NWS ARE NOT QUALITY
       CONTROLLED AND MAY MIS-REPORT RAIN FOR SNOW...
$$

  *****  WEATHER ACROSS NORTHERN MINNESOTA  *****

CITY           SKY/WX    TMP DP  RH WIND       PRES   REMARKS
FLAG ISLAND    CLOUDY    66  64  94 N10       30.07S
WARROAD        FOG       61  57  88 NW6       30.08S VSB 1/4
ROSEAU         HAZE      63  57  82 NE6       30.09R VSB 1
HALLOCK        CLOUDY    59  57  94 N10       30.07F
THF RVR FALLS  CLOUDY    64  63  94 NE12      30.05F
HALSTAD          N/A     64  63  95 N9          N/A
FOSSTON        CLOUDY    66  64  94 NE5       30.04F
BAUDETTE       FOG       62  62 100 CALM      30.06S VSB 1/4
WASKISH        CLOUDY    64  63  94 CALM      30.06S
CROOKSTON      CLOUDY    63  63 100 NE8       30.05S
$$
  *****  WEATHER ACROSS CENTRAL AND WEST MINNESOTA  *****

CITY           SKY/WX    TMP DP  RH WIND       PRES   REMARKS
BEMIDJI        FOG       66  66  99 NE3       30.04S VSB 1/4
PARK RAPIDS    CLOUDY    67  67 100 E5        30.03R FOG
WADENA         FOG       66  66 100 E7        30.03R VSB 3/4
DETROIT LAKES  MOCLDY    68  64  88 CALM      30.03R
MOORHEAD       FOG       64  64 100 N6        30.02R VSB 1
FERGUS FALLS   CLOUDY    70  66  88 NE5       30.01R
ELBOW LAKE     PTSUNNY   68  67  98 E6        30.00S
MORRIS MN      CLOUDY    70  70 100 E6        29.99F
STAPLES        CLOUDY    64  64 100 CALM      30.04R
WHEATON        CLOUDY    64  64 100 NE6       30.01F FOG
$$
  *****  WEATHER ELSEWHERE ACROSS MINNESOTA  *****

CITY           SKY/WX    TMP DP  RH WIND       PRES   REMARKS
DULUTH         CLOUDY    62  59  90 NE6       30.05S
INTRNTL FALLS  CLOUDY    59  59 100 CALM      30.07S FOG
ELY            CLOUDY    63  61  94 CALM      30.08S
CLOQUET        CLOUDY    61  59  94 NE7       30.05F
BRAINERD       FOG       62  62 100 E5        30.04R VSB 3/4
HIBBING        CLOUDY    64  62  93 SE3       30.07S
ALEXANDRIA     CLOUDY    68  67  96 E6        30.04R FOG
SAINT CLOUD    CLOUDY    66  64  93 NE3       30.01S
MINNEAPOLIS    CLOUDY    69  68  96 NE8       29.97F
$$

  *****  WEATHER ACROSS SOUTH DAKOTA  *****

CITY           SKY/WX    TMP DP  RH WIND       PRES   REMARKS
SIOUX FALLS    RAIN      71  69  93 NE14      29.94F
BROOKINGS      NOT AVBL
WATERTOWN      FOG       66  66 100 E9        29.99F VSB 3/4
HURON          LGT RAIN  71  68  90 E10       29.94R
SISSETON         N/A     66  66 100 NE8       29.99S
ABERDEEN       LGT RAIN  64  64 100 NE12      29.99R
MITCHELL       LGT RAIN  71  69  93 NE14      29.87F
PIERRE         LGT RAIN  69  69 100 E15       29.89S
MOBRIDGE       RAIN      63  63 100 NE16G23   29.94S
RAPID CITY     LGT RAIN  65  64  97 SE9       29.94S FOG
$$

  *****  SOME WEATHER IN NEARBY STATES *****

CITY           SKY/WX    TMP DP  RH WIND       PRES   REMARKS
GLASGOW MT     LGT RAIN  58  56  93 NE21      30.03S
GREAT FALLS MT RAIN      48  48 100 NW15      30.08F FOG
CHEYENNE WY    CLOUDY    57  55  93 SW10      30.01F
SCOTTSBLUFF NE CLOUDY    61  61 100 CALM      29.95F
OMAHA NE       CLOUDY    72  68  87 N10       29.91F
DES MOINES IA  TSTM      72  70  93 NW10      29.93F FOG
DAVENPORT IA   CLOUDY    74  73  97 E7        29.94F FOG
CHICAGO IL     CLOUDY    73  69  87 NE6       29.97S FOG
EAU CLAIRE WI  CLOUDY    69  68  96 NE7       29.97F
LA CROSSE WI   CLOUDY    74  71  91 N3        29.94F
$$

  *****  SOME NATIONAL WEATHER *****

CITY           SKY/WX    TMP DP  RH WIND       PRES   REMARKS
LA GUARDIA NY  MOCLDY    67  61  81 E7        30.05R
RALEIGH NC     CLOUDY    75  71  87 E5        29.92F
ATLANTA GA     PTCLDY    76  70  82 NW5       30.00R
NEW ORLEANS LA PTCLDY    79  76  90 W3        30.01R
OKLAHOMA CITY  CLEAR     71  61  70 S6        29.95R
ALBUQUERQUE NM PTCLDY    59  54  83 CALM      30.16F
SALT LAKE CITY TSTM      58  53  84 CALM      29.99F
LOS ANGELES CA CLOUDY    68  61  78 CALM      29.94F
BOISE ID       FAIR      56  45  66 W6        30.01R
SEATTLE WA     FAIR      61  56  83 CALM      30.12R
$$

*** WEATHER ACROSS MANITOBA...SASKATCHEWAN AND ONTARIO ***
                ***ONTARIO***

CITY           SKY/WX    TMP DP  RH WIND       PRES   REMARKS
GERALDTON      PTCLDY    57  57 100 CALM      30.10S FOG
THUNDER BAY    CLOUDY    63  61  94 CALM      30.07F
SIOUX LOOKOUT  PTCLDY    63  61  94 N2        30.10R
TORONTO        CLOUDY    68  64  88 E6        30.04R
BIG TROUT LK   LGT RAIN  45  43  93 N9        30.26R FOG
PICKLE LAKE    NOT AVBL
DRYDEN         PTCLDY    63  61  94 NE3       30.10S FOG
KENORA         CLOUDY    64  63  94 N6        30.10S
$$
                *** MANITOBA***

CITY           SKY/WX    TMP DP  RH WIND       PRES   REMARKS
BRANDON        CLOUDY    55  54  94 NE8       30.19R
DAUPHIN        LGT RAIN  55  54  94 N9        30.24S
ISLAND LAKE    LGT RAIN  45  45 100 NE12      30.33
PILOT MOUND      N/A     55  54  94 N8          N/A
THE PAS        CLOUDY    54  50  87 E6        30.35S
THOMPSON       MOCLDY    46  41  81 E8        30.44R
WINNIPEG       DRZL/FOG  55  55 100 N9        30.14R VSB 3/4
LYNN LAKE      CLOUDY    48  45  87 MISG      30.44R
CHURCHILL      MOCLDY    46  39  76 N9G17     30.46R
GILLAM         PTCLDY    45  41  87 N15       30.43R
$$
                ***SASKATCHEWAN***

CITY           SKY/WX    TMP DP  RH WIND       PRES   REMARKS
ESTEVAN        CLOUDY    55  52  88 E12       30.16F
KINDERSLEY     LGT RAIN  50  50 100 N7        30.28F
LLOYDMINSTER   CLOUDY    48  43  81 N6        30.35R
PRINCE ALBERT  MOCLDY    52  52 100 E6        30.32
REGINA         CLOUDY    54  50  87 E10       30.22R


USA.gov is the U.S. government's official web portal to all federal, state and local government web resources and services.